User: anonymous   Login
Location: Unspecified
(0.0000°N, 0.0000°E)
Time: 00:17:14
(UTC+00:00)
Language:

Himawari 2 - Orbit

View from above orbital plane
View from above orbital plane
View from above satellite
View from above satellite

Ground track
Ground track

The orbit data is extracted from the following two-line orbital elements,

1 12677U 81076A   17229.91851516 +.00000064 +00000-0 +00000-0 0  9992
2 12677 014.0161 335.0302 0012328 240.4837 119.1110 00.99551398100114
Epoch (UTC): 17 August 2017 22:02:39
Eccentricity: 0.0012328
inclination: 14.0161°
perigee height: 35937 km
apogee height: 36041 km
right ascension of ascending node: 335.0302°
argument of perigee: 240.4837°
revolutions per day: 0.99551398
mean anomaly at epoch: 119.1110°
orbit number at epoch: 10011

The dashed part of the orbit path shows where the satellite is in the earth's shadow,  

DLR